| time (UTC) | temp F | wind direction | speed knots | gust knots | rain 1hr in | rain 24hr in | rain mn in | humidity % | barometer mb |
| 20260504011521 | 64 | 86 | 3.5 | 10.4 | 0.00 | 0.00 | 0.00 | 65 | 1009.7 |
| 20260504010016 | 64 | 54 | 6.1 | 10.4 | 0.00 | 0.00 | 0.00 | 64 | 1009.5 |
| 20260504004517 | 66 | 24 | 5.2 | 13.0 | 0.00 | 0.00 | 0.00 | 62 | 1009.2 |
| 20260504003016 | 66 | 30 | 6.1 | 11.3 | 0.00 | 0.00 | 0.00 | 60 | 1008.9 |
| 20260504001516 | 67 | 46 | 4.3 | 9.6 | 0.00 | 0.00 | 0.00 | 58 | 1008.6 |
| 20260504000015 | 67 | 70 | 5.2 | 9.6 | 0.00 | 0.00 | 0.00 | 58 | 1008.7 |
| 20260503234516 | 68 | 5 | 1.7 | 8.7 | 0.00 | 0.00 | 0.00 | 57 | 1008.6 |
| 20260503233012 | 68 | 57 | 0.9 | 7.0 | 0.00 | 0.00 | 0.00 | 58 | 1008.6 |
| 20260503231516 | 67 | 82 | 4.3 | 7.8 | 0.00 | 0.00 | 0.00 | 60 | 1008.9 |
| 20260503230010 | 67 | 11 | 5.2 | 9.6 | 0.00 | 0.00 | 0.00 | 60 | 1008.9 |
| 20260503224514 | 66 | 32 | 1.7 | 6.1 | 0.00 | 0.00 | 0.00 | 62 | 1009.1 |
| 20260503223010 | 66 | 32 | 3.5 | 9.6 | 0.00 | 0.00 | 0.00 | 62 | 1009.1 |
| 20260503221508 | 66 | 98 | 2.6 | 7.0 | 0.00 | 0.00 | 0.00 | 64 | 1009.2 |
| 20260503220007 | 66 | 74 | 4.3 | 7.0 | 0.00 | 0.00 | 0.00 | 64 | 1009.3 |
| 20260503214508 | 66 | 20 | 5.2 | 8.7 | 0.00 | 0.00 | 0.00 | 65 | 1009.5 |
| 20260503213006 | 66 | 68 | 3.5 | 7.8 | 0.00 | 0.00 | 0.00 | 65 | 1009.3 |
| 20260503211505 | 66 | 51 | 6.1 | 9.6 | 0.00 | 0.00 | 0.00 | 66 | 1009.6 |
| 20260503210005 | 66 | 53 | 2.6 | 6.1 | 0.00 | 0.00 | 0.00 | 66 | 1009.5 |
| 20260503204510 | 66 | 54 | 2.6 | 6.1 | 0.00 | 0.00 | 0.00 | 67 | 1009.5 |
| 20260503203004 | 66 | 59 | 3.5 | 6.1 | 0.00 | 0.00 | 0.00 | 67 | 1009.8 |
| 20260503201506 | 65 | 82 | 3.5 | 8.7 | 0.00 | 0.00 | 0.00 | 67 | 1009.8 |
| 20260503200005 | 65 | 102 | 4.3 | 11.3 | 0.00 | 0.00 | 0.00 | 67 | 1010.1 |
| 20260503194502 | 66 | 58 | 5.2 | 12.2 | 0.00 | 0.00 | 0.00 | 67 | 1010.0 |
| 20260503193001 | 67 | 54 | 6.1 | 13.0 | 0.00 | 0.00 | 0.00 | 65 | 1010.0 |
| 20260503191559 | 67 | 30 | 2.6 | 7.8 | 0.00 | 0.00 | 0.00 | 65 | 1009.9 |
| 20260503190059 | 67 | 11 | 0.9 | 5.2 | 0.00 | 0.00 | 0.00 | 66 | 1009.9 |
| 20260503184605 | 67 | 5 | 0.0 | 4.3 | 0.00 | 0.00 | 0.00 | 67 | 1009.9 |
| 20260503183057 | 66 | 88 | 0.0 | 4.3 | 0.00 | 0.00 | 0.00 | 69 | 1009.9 |
| 20260503181601 | 66 | 38 | 0.9 | 4.3 | 0.00 | 0.00 | 0.00 | 69 | 1010.1 |
| 20260503180105 | 66 | 5 | 0.9 | 4.3 | 0.00 | 0.00 | 0.00 | 70 | 1010.1 |
| 20260503174552 | 65 | 30 | 0.0 | 4.3 | 0.00 | 0.00 | 0.00 | 71 | 1010.3 |
| 20260503173059 | 64 | 350 | 0.0 | 3.5 | 0.00 | 0.00 | 0.00 | 73 | 1010.3 |
| 20260503171546 | 63 | 355 | 0.0 | 0.0 | 0.00 | 0.00 | 0.00 | 75 | 1010.3 |
| 20260503081600 | 60 | 344 | 0.0 | 1.7 | 0.00 | 0.00 | 0.00 | 87 | 1009.5 |
| 20260503071602 | 60 | 29 | 0.9 | 4.3 | 0.00 | 0.00 | 0.00 | 86 | 1010.0 |
| 20260503060110 | 60 | 46 | 3.5 | 6.1 | 0.00 | 0.00 | 0.00 | 85 | 1009.9 |
| 20260503054607 | 60 | 12 | 2.6 | 7.0 | 0.00 | 0.00 | 0.00 | 85 | 1009.9 |
| 20260503053049 | 61 | 52 | 1.7 | 7.0 | 0.00 | 0.00 | 0.00 | 85 | 1009.8 |
| 20260503051549 | 60 | 62 | 0.9 | 6.1 | 0.00 | 0.00 | 0.00 | 85 | 1009.4 |
| 20260503050049 | 61 | 35 | 0.0 | 7.0 | 0.00 | 0.00 | 0.00 | 84 | 1009.1 |
| 20260503044548 | 61 | 46 | 1.7 | 5.2 | 0.00 | 0.00 | 0.00 | 84 | 1008.8 |
| 20260503043051 | 61 | 84 | 0.9 | 5.2 | 0.00 | 0.00 | 0.00 | 84 | 1008.5 |
| 20260503041547 | 61 | 44 | 0.0 | 2.6 | 0.00 | 0.00 | 0.00 | 83 | 1008.1 |
| 20260503040055 | 61 | 123 | 1.7 | 4.3 | 0.00 | 0.00 | 0.00 | 83 | 1007.9 |
| 20260503034548 | 62 | 80 | 1.7 | 6.1 | 0.00 | 0.00 | 0.00 | 83 | 1007.6 |
| 20260503033049 | 62 | 98 | 2.6 | 4.3 | 0.00 | 0.00 | 0.00 | 82 | 1007.4 |
| 20260503031545 | 63 | 84 | 1.7 | 6.1 | 0.00 | 0.00 | 0.00 | 80 | 1007.2 |
| 20260503030045 | 64 | 122 | 3.5 | 7.0 | 0.00 | 0.00 | 0.00 | 78 | 1007.1 |
| 20260503024544 | 65 | 43 | 2.6 | 4.3 | 0.00 | 0.00 | 0.00 | 76 | 1007.2 |
| 20260503023050 | 65 | 78 | 0.9 | 6.1 | 0.00 | 0.00 | 0.00 | 75 | 1007.2 |
| 20260503021551 | 66 | 88 | 2.6 | 7.0 | 0.00 | 0.00 | 0.00 | 74 | 1007.0 |
| 20260503020049 | 67 | 118 | 4.3 | 7.0 | 0.00 | 0.00 | 0.00 | 73 | 1007.0 |
| 20260503014544 | 68 | 130 | 3.5 | 7.0 | 0.00 | 0.00 | 0.00 | 71 | 1006.8 |
| 20260503013042 | 70 | 106 | 3.5 | 7.8 | 0.00 | 0.00 | 0.00 | 69 | 1006.8 |